Theta_e
342 346 345 345 343 342 341 340 338 339 339 337 336 339 339 338 338 338 336 335 332 332 332 332 333 332 333 332 332 327 324 330 330 329 328 328 326 325 324 323 322 321 320
342 342 343 344 341 342 342 340 340 340 340 338 337 337 339 338 338 337 336 335 333 330 331 332 332 331 332 332 331 326 324 327 331 328 328 327 326 324 323 322 321 320 319
344 343 343 343 342 342 342 341 340 340 341 338 338 337 336 337 337 337 336 335 334 332 330 330 331 332 332 331 332 327 326 326 328 328 327 326 325 324 323 322 321 319 318
343 345 342 344 341 343 343 343 341 340 340 337 338 339 338 337 337 336 336 335 335 334 331 330 331 331 331 330 327 327 324 323 329 328 327 325 324 323 323 322 320 319 317
345 343 343 343 342 342 342 343 341 340 340 337 339 339 337 337 336 336 335 335 334 333 332 328 329 330 329 328 326 325 324 324 324 329 327 325 324 323 322 321 320 318 316
341 341 344 342 343 342 342 342 341 340 339 338 339 339 338 337 336 335 335 334 334 334 333 332 328 326 326 326 326 326 327 326 325 328 327 326 324 323 322 321 320 318 316
340 341 342 342 342 341 340 342 342 340 340 338 339 338 338 336 335 334 334 334 334 334 333 332 330 326 325 325 325 325 326 328 327 328 328 326 324 323 321 320 319 317 316
328 338 340 341 340 341 339 339 341 340 340 340 337 335 333 333 335 335 334 334 332 333 332 331 330 327 326 325 325 326 327 328 328 329 328 327 325 322 320 319 318 317 316
324 329 337 337 339 339 339 337 338 340 339 339 338 333 329 328 327 334 334 333 332 332 331 331 330 328 326 325 324 325 326 326 329 330 329 326 323 321 319 318 317 316 316
318 321 324 334 337 337 336 335 335 336 338 337 336 335 330 329 325 327 331 333 333 331 331 331 330 330 328 324 324 325 325 325 325 327 328 326 324 321 319 318 317 316 315
313 314 317 323 333 336 336 335 334 336 336 336 335 335 332 329 329 325 327 329 332 331 332 331 330 330 329 325 324 324 324 324 324 324 324 327 324 321 318 317 316 315 315
309 311 313 316 322 335 335 336 335 335 336 336 334 333 333 332 330 327 324 325 329 331 331 331 330 330 329 328 325 323 323 323 323 322 326 326 325 323 319 317 316 315 315
304 308 310 313 318 327 334 335 334 335 335 335 333 333 332 332 331 330 328 324 324 329 330 331 330 330 330 329 327 326 325 324 323 323 325 327 326 324 319 317 316 316 315
302 303 305 309 313 319 330 333 333 332 335 335 334 333 332 331 331 330 329 326 324 323 327 329 330 330 329 329 328 328 327 326 325 325 325 326 327 325 321 318 316 316 315
300 302 304 306 310 314 321 332 332 331 334 336 335 333 332 331 331 331 329 328 327 325 324 326 328 329 329 329 328 328 328 327 327 325 325 326 327 326 324 319 317 316 316
299 301 303 305 307 312 318 330 330 330 332 334 334 334 332 331 330 330 329 328 328 325 325 327 327 327 327 327 327 328 327 327 326 326 326 326 326 326 325 321 318 317 317
298 300 303 307 308 310 316 329 330 329 331 332 333 333 332 331 330 330 329 327 328 329 325 325 326 326 326 326 326 325 326 324 324 324 325 325 326 326 325 323 319 318 317
295 299 304 308 312 311 316 327 333 331 331 331 332 332 330 331 330 329 326 322 323 327 326 323 325 325 325 326 326 325 324 322 322 322 323 325 325 325 325 322 319 319 318
293 296 301 307 314 314 317 325 331 331 333 331 332 331 331 329 326 325 324 327 325 327 327 326 325 326 325 326 325 325 324 322 322 322 322 323 324 325 324 322 319 319 319
290 292 295 298 311 317 324 328 329 328 329 331 331 331 331 329 325 324 326 327 327 327 327 326 325 325 325 325 325 323 322 322 322 323 322 322 322 323 323 321 318 318 320
288 290 291 292 298 305 311 321 325 327 328 331 328 329 330 328 327 327 327 327 327 325 323 323 322 322 322 323 323 322 320 318 316 317 319 319 319 318 319 318 315 315 318
286 288 288 289 290 291 301 319 323 327 326 323 318 316 317 322 324 325 327 324 322 320 316 316 318 319 320 321 322 321 317 305 303 306 306 302 305 308 312 316 316 316 316
285 285 286 286 288 290 289 296 306 298 297 298 299 299 301 304 314 314 312 313 314 314 314 311 308 304 304 307 309 313 314 307 304 301 302 291 294 296 298 301 311 315 316
284 285 285 285 285 286 289 288 288 288 290 290 291 292 293 295 294 299 301 301 298 299 300 301 300 294 295 299 301 306 307 302 297 296 298 290 290 288 290 290 291 301 308
283 283 283 284 285 285 285 287 288 286 286 286 286 288 288 289 289 290 291 287 285 284 285 292 291 291 292 296 300 301 301 298 292 293 294 289 287 286 286 286 287 289 289
282 282 282 282 283 284 285 284 284 286 285 285 285 285 285 285 287 289 287 284 282 282 285 288 288 290 291 293 296 297 297 298 291 291 291 288 286 286 284 284 284 284 284
Wind_Speed
26 26 27 28 27 26 25 26 24 20 19 17 13 16 12 12 12 11 12 12 10 12 14 17 19 20 19 19 20 18 21 29 29 29 29 28 27 25 24 22 20 19 17
28 28 28 29 29 28 28 26 27 24 22 18 18 17 18 15 16 16 14 13 12 14 16 19 18 17 18 21 22 18 20 28 29 32 30 29 28 26 24 22 21 19 17
29 30 29 31 29 28 28 28 27 27 23 20 21 21 20 19 17 16 15 15 14 15 17 19 18 17 20 20 21 21 20 18 30 33 32 31 29 27 25 23 22 20 16
34 30 33 33 32 31 32 33 31 29 29 24 25 23 22 20 19 17 16 16 16 17 18 19 21 21 21 21 19 25 20 30 32 33 34 32 30 28 26 25 24 22 20
32 36 36 32 32 29 29 35 34 33 28 25 23 21 21 20 19 18 19 19 20 20 17 19 20 20 22 22 22 24 23 23 28 41 37 34 31 29 27 26 26 25 22
32 37 39 38 35 31 22 33 36 35 34 30 23 21 20 20 20 20 20 21 21 22 21 20 22 22 22 24 25 28 26 30 33 43 40 34 32 30 28 28 28 27 22
36 38 38 38 39 41 42 27 32 34 32 30 25 16 20 22 22 22 21 22 23 25 24 23 23 25 23 24 24 24 26 27 36 42 40 35 33 31 29 29 29 29 23
24 36 37 39 42 38 41 42 33 26 27 31 16 12 3 5 18 21 23 25 24 26 27 25 22 23 23 22 20 22 22 20 42 42 38 35 34 31 30 30 31 28 27
23 18 37 39 41 35 31 41 38 33 25 31 29 12 3 5 3 15 28 27 28 28 28 27 25 23 21 22 19 23 26 23 22 30 33 34 33 31 31 31 30 28 29
34 30 25 30 42 39 37 32 36 35 30 22 24 31 11 10 4 1 9 27 29 29 30 29 28 26 22 23 20 18 21 27 24 29 36 32 33 31 28 32 30 31 31
38 38 33 27 30 40 38 37 43 38 37 27 26 26 23 16 9 3 3 5 25 29 28 30 29 28 26 24 23 22 20 23 16 22 25 38 33 29 28 34 31 31 31
39 38 34 35 30 36 39 39 39 36 32 30 26 25 28 23 20 5 2 3 8 19 32 31 31 30 28 28 26 24 21 23 20 24 28 36 32 30 30 31 32 32 32
31 36 33 29 31 29 37 37 37 37 35 34 31 28 28 29 26 23 13 4 3 13 18 29 31 31 30 29 28 28 29 28 26 29 32 35 36 34 33 32 36 34 33
34 36 37 36 36 36 32 39 37 36 34 37 35 32 28 29 29 29 24 9 1 4 9 8 27 29 30 29 27 27 28 29 32 32 36 37 41 39 37 36 37 36 33
35 36 37 38 35 38 34 38 37 35 34 35 35 36 35 31 31 33 29 27 14 5 7 14 11 27 29 29 28 27 29 28 29 32 36 40 44 44 40 38 38 38 35
35 39 39 38 38 35 39 38 38 37 36 34 35 34 35 33 35 33 31 27 20 13 4 15 23 16 29 29 28 28 29 28 28 31 33 37 43 46 44 40 38 38 37
31 35 37 38 39 38 40 37 39 35 37 36 36 34 36 37 37 35 33 26 28 25 12 14 20 21 24 26 29 28 26 26 28 30 33 35 42 47 47 42 38 40 39
29 28 30 37 43 38 37 38 40 37 40 37 37 37 39 40 40 41 34 32 26 27 20 10 19 18 25 24 25 24 24 23 23 26 29 36 39 43 44 42 38 38 41
24 21 22 23 30 34 35 39 39 37 37 39 40 39 39 34 36 30 27 23 26 27 29 17 17 21 23 19 23 21 20 22 23 24 23 28 35 43 45 43 37 38 41
25 23 18 16 8 12 25 35 41 41 40 40 37 42 35 32 36 32 28 27 28 25 22 19 16 16 17 13 21 23 21 25 28 29 28 28 33 42 44 39 38 39 42
28 32 32 27 14 13 6 18 28 36 35 29 25 26 30 30 32 33 34 30 26 21 19 13 7 8 10 10 14 16 20 23 24 26 27 29 33 39 39 39 39 41 40
30 36 42 29 30 33 22 2 9 19 17 20 25 26 26 31 35 36 33 28 24 24 19 13 8 7 14 18 18 21 18 8 3 19 17 12 17 23 31 40 42 41 40
32 36 40 35 42 42 49 39 24 33 37 27 21 18 24 26 27 28 26 24 19 14 13 12 11 7 5 6 8 11 23 13 9 13 19 9 9 11 10 13 30 42 41
35 39 43 42 43 50 50 50 42 44 46 40 32 24 20 22 18 24 24 23 20 17 13 11 9 7 5 10 10 8 13 14 13 15 14 6 10 16 15 18 21 22 26
37 40 41 48 50 53 52 46 47 43 43 44 43 32 25 25 16 16 24 28 25 22 18 16 11 6 1 4 6 9 19 20 4 6 10 10 13 19 19 18 18 22 27
36 38 43 47 47 52 51 48 39 43 36 33 43 37 36 34 27 20 25 25 23 18 20 20 16 12 11 11 6 10 14 15 11 4 12 9 23 13 6 13 17 20 23
Wind_Direction
207 207 218 217 218 221 224 225 225 224 229 225 223 225 233 230 217 220 236 241 222 211 211 216 210 210 203 208 205 207 229 232 204 194 189 186 184 184 186 189 190 191 194
215 215 217 220 220 224 225 226 222 220 226 223 225 227 224 220 223 229 233 245 226 221 216 216 219 213 208 210 213 209 213 221 215 202 195 191 189 190 192 193 193 193 190
219 220 220 221 224 224 225 223 219 217 219 229 228 226 232 226 223 229 232 231 224 228 228 226 225 219 214 215 216 224 225 207 226 207 198 196 194 195 195 195 194 195 192
219 221 225 223 222 223 220 221 217 211 218 219 228 229 226 228 228 225 225 221 232 236 230 220 223 224 221 219 223 224 230 222 206 212 202 199 198 200 197 197 194 191 185
222 224 230 231 220 216 220 217 217 210 207 214 217 222 227 227 228 222 218 220 227 235 231 222 221 218 221 223 230 232 227 217 208 209 206 201 200 203 199 198 194 191 194
234 230 231 234 228 217 213 216 214 214 217 212 211 214 222 229 227 219 218 221 229 229 232 230 231 231 234 242 240 237 230 223 218 204 206 202 203 205 202 200 196 197 200
249 229 232 236 236 233 227 208 212 210 212 214 195 212 229 228 227 223 219 220 223 230 236 237 241 237 237 246 250 242 232 228 207 200 204 204 206 207 205 202 200 200 204
293 257 237 236 235 237 230 222 204 201 202 197 182 166 174 233 228 223 220 221 228 228 233 236 240 243 244 240 242 236 227 243 206 195 203 206 208 208 208 204 201 203 204
299 313 263 245 248 244 241 240 223 207 200 191 196 168 151 212 161 214 225 227 227 224 231 234 239 241 240 240 243 244 222 217 209 195 202 206 207 207 209 206 201 211 204
292 294 297 277 252 243 238 235 258 222 215 198 195 205 194 158 168 188 227 230 229 228 229 229 235 241 242 235 231 220 222 222 215 221 209 211 210 205 207 202 205 205 205
290 288 288 291 278 252 240 232 226 221 219 209 204 204 207 187 194 141 176 206 225 230 233 233 233 237 237 233 229 227 226 221 210 222 247 208 209 207 205 208 212 210 210
296 294 291 285 288 262 245 234 228 219 213 223 220 215 212 208 215 178 139 161 206 225 230 233 234 235 236 232 231 224 217 213 210 219 214 205 211 211 208 210 210 212 213
294 292 294 291 279 287 248 239 232 227 223 217 222 212 218 220 218 212 176 171 162 212 223 230 234 235 233 230 230 229 229 225 226 226 218 216 215 215 213 209 210 213 216
285 287 285 281 273 265 270 242 236 234 214 213 214 216 221 218 213 208 199 165 154 200 199 205 224 231 233 232 231 230 231 229 230 233 224 219 220 219 216 212 210 214 213
280 282 280 278 274 268 267 241 236 230 222 219 215 209 215 218 211 214 205 196 182 197 217 205 197 222 227 230 234 233 233 235 233 231 230 228 222 219 219 215 213 214 215
280 279 274 271 269 262 256 243 227 222 221 218 217 208 204 209 212 206 208 212 197 198 228 205 211 221 223 225 231 234 240 244 240 236 233 232 226 222 221 217 217 217 218
285 278 276 270 263 255 251 243 228 225 219 220 215 208 203 204 194 196 199 198 209 202 220 222 219 226 235 227 230 235 238 243 242 238 235 237 230 224 222 216 219 219 219
300 289 285 286 254 242 241 242 221 222 222 215 212 205 205 200 194 193 209 221 194 206 209 197 206 213 225 226 228 228 233 239 245 246 240 235 237 225 225 217 219 222 221
321 316 307 298 252 239 235 241 221 219 218 214 209 204 210 198 202 203 204 202 205 215 217 202 204 218 220 212 218 229 233 236 246 250 251 243 236 229 226 220 219 226 224
350 0 359 340 325 253 242 236 228 219 222 216 207 209 210 200 198 197 202 205 198 197 201 202 200 203 218 208 211 208 214 226 230 237 243 242 242 235 224 221 220 225 224
10 27 27 14 11 26 318 249 231 223 221 215 203 199 196 193 190 189 188 190 186 176 175 173 162 186 205 212 211 215 214 224 220 225 228 233 239 235 226 219 221 226 233
16 33 34 12 37 34 50 28 253 239 182 177 155 152 153 162 166 173 177 171 173 174 180 182 188 208 219 225 220 213 207 180 222 220 200 193 207 212 219 220 222 226 230
31 36 40 27 33 39 48 62 96 88 76 71 84 109 128 130 144 147 143 148 153 175 187 192 193 199 215 212 231 222 208 195 187 186 184 82 132 132 161 196 221 224 226
33 39 40 37 38 37 50 59 59 67 72 64 60 67 81 112 121 132 131 125 119 115 124 136 157 170 218 243 249 228 225 170 142 163 162 107 116 101 118 118 136 177 211
35 39 39 41 43 39 41 53 60 61 60 64 59 58 65 83 87 113 123 109 103 100 94 102 99 105 193 267 238 217 180 153 112 158 166 132 138 106 100 110 114 126 139
39 39 41 40 40 43 41 50 50 62 61 62 64 54 63 64 82 98 97 92 87 85 96 93 86 83 76 78 132 185 191 164 130 121 169 122 149 135 101 118 126 126 129